^^
Meteo Knjazevac Station Historical Data
Daily Summary for April 18, 2021 Units:  English    Metric   Both
Daily Weekly Monthly Yearly Custom
  High: Low: Average:
Temperature: 55.4 °F 52.6 °F 54.3 °F
Dew Point: 54.9 °F 49.8 °F 52.5 °F
Humidity: 99% 88% 94%
Wind Speed: 7mph 0mph 2.6mph
Wind Gust: 13mph - -
Wind- - WSW
Pressure: 29.90 in 29.87 in -
Precipitation: 0.00 in    
Historical Graphs
 
 
Tabular Data for April 18, 2021
Time Temperature Dew Point Pressure Wind Wind Speed Wind Gust Humidity Rainfall Rate (Hourly) solar Conditions
00:00 55.4 °F 54.8 °F 29.87 in Calm   3 mph 98% 0.00 in 0 W/m2
00:10 55.4 °F 54.8 °F 29.87 in ENE 1 mph 2 mph 98% 0.00 in 0 W/m2
00:20 55.2 °F 54.9 °F 29.87 in SW 2 mph 4 mph 99% 0.00 in 0 W/m2
00:30 55 °F 54.8 °F 29.87 in West 1 mph 4 mph 99% 0.00 in 0 W/m2
00:40 55 °F 54.7 °F 29.87 in WNW 1 mph 4 mph 99% 0.00 in 0 W/m2
00:50 54.9 °F 54.6 °F 29.87 in West 2 mph 3 mph 99% 0.00 in 0 W/m2
01:00 54.9 °F 54.6 °F 29.88 in WSW 3 mph 7 mph 99% 0.00 in 0 W/m2
01:10 55 °F 53.9 °F 29.87 in WNW 3 mph 9 mph 96% 0.00 in 0 W/m2
01:20 54.9 °F 53.7 °F 29.87 in West 1 mph 6 mph 96% 0.00 in 0 W/m2
01:30 54.7 °F 53.6 °F 29.87 in WNW 2 mph 5 mph 96% 0.00 in 0 W/m2
01:40 54.7 °F 53.3 °F 29.87 in West 2 mph 6 mph 95% 0.00 in 0 W/m2
01:50 54.5 °F 52.8 °F 29.87 in WSW 2 mph 7 mph 94% 0.00 in 0 W/m2
02:00 54.3 °F 52.9 °F 29.88 in WSW 2 mph 6 mph 95% 0.00 in 0 W/m2
02:10 54.3 °F 52.6 °F 29.87 in WSW 3 mph 5 mph 94% 0.00 in 0 W/m2
02:20 54 °F 51.7 °F 29.88 in West 7 mph 13 mph 92% 0.00 in 0 W/m2
02:30 54.1 °F 51.6 °F 29.89 in West 3 mph 13 mph 91% 0.00 in 0 W/m2
02:40 54 °F 51.1 °F 29.89 in West 5 mph 9 mph 90% 0.00 in 0 W/m2
02:50 53.8 °F 50.9 °F 29.89 in WSW 6 mph 9 mph 90% 0.00 in 0 W/m2
03:00 53.7 °F 50.5 °F 29.90 in WSW 6 mph 10 mph 89% 0.00 in 0 W/m2
03:10 53.6 °F 50.4 °F 29.90 in WSW 3 mph 9 mph 89% 0.00 in 0 W/m2
03:20 53.5 °F 50.1 °F 29.90 in WSW 3 mph 8 mph 88% 0.00 in 0 W/m2
03:30 53.4 °F 50 °F 29.90 in West 1 mph 7 mph 88% 0.00 in 0 W/m2
03:40 53.2 °F 50.1 °F 29.90 in WNW 1 mph 3 mph 89% 0.00 in 0 W/m2
03:50 52.9 °F 50 °F 29.90 in WSW 2 mph 5 mph 90% 0.00 in 0 W/m2
04:00 52.6 °F 49.8 °F 29.90 in WSW 3 mph 7 mph 90% 0.00 in 0 W/m2
Knjazevac, Serbia
Compliments of Weather Underground - 2 mb